FW3092 Weather Reports


Display with metric or nautical units.
time (UTC)temp
F
wind
direction
speed
MPH
gust
MPH
rain 1hr
in
rain 24hr
in
rain mn
in
humidity
%
barometer
mb
20260503001508 40 294 3.0 7.0 0.00 0.10 0.01 65 955.7
20260503000013 41 322 1.0 5.0 0.00 0.13 0.01 63 955.7
20260502234506 41 290 4.0 8.0 0.00 0.13 0.01 62 955.5
20260502233003 41 281 3.0 10.0 0.00 0.13 0.01 61 955.4
20260502231502 42 323 3.0 9.0 0.00 0.13 0.01 60 955.2
20260502230002 42 286 3.0 8.0 0.00 0.13 0.01 60 955.2
20260502224501 43 355 3.0 9.0 0.00 0.13 0.01 58 955.2
20260502223107 43 346 3.0 11.0 0.00 0.13 0.01 58 955.1
20260502221603 43 312 5.0 10.0 0.00 0.13 0.01 58 955.0
20260502220104 43 296 5.0 9.0 0.00 0.13 0.01 59 954.9
20260502214617 43 257 7.0 12.0 0.00 0.13 0.01 59 955.1
20260502213120 43 259 3.0 11.0 0.00 0.13 0.01 59 955.1
20260502211559 43 263 5.0 9.0 0.00 0.13 0.01 60 955.0
20260502210056 43 339 3.0 6.0 0.00 0.13 0.01 58 954.9
20260502204556 44 288 5.0 9.0 0.00 0.13 0.01 58 955.1
20260502203114 44 289 2.0 9.0 0.00 0.13 0.01 57 955.1
20260502201555 44 284 4.0 10.0 0.00 0.13 0.01 56 955.1
20260502200058 44 304 3.0 9.0 0.00 0.13 0.01 55 955.2
20260502194556 44 281 6.0 9.0 0.00 0.13 0.01 53 955.4
20260502193053 44 307 4.0 10.0 0.00 0.13 0.01 54 955.6
20260502191558 45 257 7.0 11.0 0.00 0.13 0.01 54 955.6
20260502190052 45 265 5.0 10.0 0.00 0.13 0.01 54 955.6
20260502184550 45 179 3.0 8.0 0.00 0.13 0.01 53 955.6
20260502183102 44 252 3.0 7.0 0.00 0.13 0.01 54 955.9
20260502181550 45 327 3.0 7.0 0.00 0.13 0.01 52 955.8
20260502163052 47 309 6.0 13.0 0.00 0.13 0.01 51 955.9
20260502161554 46 333 5.0 18.0 0.00 0.13 0.01 51 955.9
20260502151530 44 159 3.0 10.0 0.00 0.13 0.01 58 956.1
20260502123116 37 272 3.0 11.0 0.00 0.13 0.01 86 956.0
20260502121558 36 304 3.0 11.0 0.00 0.13 0.01 86 956.0
20260502120109 37 263 3.0 8.0 0.00 0.13 0.01 88 956.0
20260502114552 37 331 1.0 8.0 0.00 0.13 0.01 90 955.9
20260502113053 37 300 1.0 8.0 0.00 0.13 0.01 90 956.0
20260502111549 36 294 2.0 9.0 0.00 0.13 0.01 91 955.8
20260502110048 36 283 3.0 10.0 0.00 0.13 0.01 91 955.8
20260502104544 36 279 3.0 8.0 0.00 0.13 0.01 91 955.5
20260502103043 36 327 2.0 10.0 0.00 0.13 0.01 91 955.5
20260502101541 36 313 5.0 13.0 0.00 0.13 0.01 91 955.5
20260502091530 37 285 1.0 6.0 0.00 0.13 0.01 91 955.2
20260502071516 37 254 1.0 5.0 0.00 0.13 0.01 91 954.4
20260502070020 37 347 1.0 9.0 0.00 0.13 0.01 91 954.4
20260502064515 37 265 1.0 8.0 0.00 0.13 0.01 91 954.4
20260502063015 38 331 2.0 9.0 0.00 0.13 0.01 91 954.6
20260502061511 38 41 1.0 5.0 0.00 0.13 0.01 91 954.8
20260502060008 38 282 2.0 9.0 0.00 0.13 0.01 91 954.8
20260502054506 38 279 4.0 9.0 0.00 0.13 0.01 91 954.5
20260502053003 39 360 2.0 6.0 0.01 0.13 0.01 91 954.5
20260502051500 39 302 1.0 5.0 0.01 0.13 0.01 91 954.6
20260502050058 39 301 2.0 8.0 0.01 0.13 0.01 91 954.8
20260502044614 40 293 3.0 8.0 0.01 0.13 0.01 91 954.8
20260502043058 40 291 2.0 7.0 0.01 0.13 0.01 91 954.6
20260502041552 40 254 4.0 9.0 0.00 0.12 0.00 91 954.6
20260502040048 40 232 3.0 8.0 0.02 0.12 0.00 91 954.4
20260502034548 40 257 6.0 9.0 0.03 0.12 0.12 91 954.1
20260502033049 40 246 5.0 10.0 0.03 0.12 0.12 91 954.3
20260502031546 41 236 4.0 10.0 0.03 0.12 0.12 91 954.3
20260502030047 41 266 5.0 10.0 0.03 0.10 0.10 91 954.4
20260502024544 41 253 2.0 7.0 0.02 0.09 0.09 91 954.5
20260502023045 41 233 1.0 4.0 0.03 0.09 0.09 90 954.6
20260502021543 41 215 1.0 3.0 0.02 0.08 0.08 90 954.6
20260502020044 41 209 0.0 3.0 0.02 0.07 0.07 90 954.5
20260502014543 41 205 2.0 4.0 0.02 0.07 0.07 90 954.4
20260502013044 41 210 1.0 4.0 0.02 0.06 0.06 90 954.5
20260502011542 42 210 3.0 6.0 0.03 0.06 0.06 89 954.5
20260502010041 42 216 2.0 5.0 0.02 0.05 0.05 89 954.5
20260502004543 42 216 2.0 4.0 0.02 0.05 0.05 89 954.4
20260502003040 42 208 2.0 5.0 0.03 0.04 0.04 88 954.1